Time,TemperatureF,DewpointF,PressureIn,WindDirection,WindDirectionDegrees,WindSpeedMPH,WindSpeedGustMPH,Humidity,HourlyPrecipIn,Conditions,Clouds,dailyrainin,SolarRadiationWatts/m^2,SoftwareType,DateUTC
2013-03-26 00:02:00,4.0,-4.0,-100.00,WSW,257,4.0,11.0,70,0.00,,,-99.99,0.000000,,2013-03-26 08:02:00,
2013-03-26 00:12:00,4.0,-4.0,-100.00,WSW,257,4.0,11.0,70,0.00,,,-99.99,0.000000,,2013-03-26 08:12:00,
2013-03-26 00:42:00,2.0,-5.0,-100.00,SW,233,1.0,12.0,72,0.00,,,0.00,0.000000,,2013-03-26 08:42:00,
2013-03-26 00:52:00,2.0,-5.0,-100.00,SW,233,1.0,12.0,72,0.00,,,0.00,0.000000,,2013-03-26 08:52:00,
2013-03-26 01:02:00,2.0,-5.0,-100.00,SW,233,1.0,12.0,72,0.00,,,0.00,0.000000,,2013-03-26 09:02:00,
2013-03-26 01:12:00,2.0,-5.0,-100.00,SW,233,1.0,12.0,72,0.00,,,0.00,0.000000,,2013-03-26 09:12:00,
2013-03-26 01:43:00,1.0,-5.0,-100.00,SW,222,2.0,6.0,76,0.00,,,0.00,0.000000,,2013-03-26 09:43:00,
2013-03-26 01:52:00,1.0,-5.0,-100.00,SW,222,2.0,6.0,76,0.00,,,0.00,0.000000,,2013-03-26 09:52:00,
2013-03-26 02:02:00,1.0,-5.0,-100.00,SW,222,2.0,6.0,76,0.00,,,0.00,0.000000,,2013-03-26 10:02:00,
2013-03-26 02:12:00,1.0,-5.0,-100.00,SW,222,2.0,6.0,76,0.00,,,0.00,0.000000,,2013-03-26 10:12:00,
2013-03-26 02:43:00,0.0,-5.0,-100.00,SW,215,2.0,8.0,79,0.00,,,0.00,0.000000,,2013-03-26 10:43:00,
2013-03-26 02:53:00,0.0,-5.0,-100.00,SW,215,2.0,8.0,79,0.00,,,0.00,0.000000,,2013-03-26 10:53:00,
2013-03-26 03:02:00,0.0,-5.0,-100.00,SW,215,2.0,8.0,79,0.00,,,0.00,0.000000,,2013-03-26 11:02:00,
2013-03-26 03:12:00,0.0,-5.0,-100.00,SW,215,2.0,8.0,79,0.00,,,0.00,0.000000,,2013-03-26 11:12:00,
2013-03-26 03:43:00,-1.0,-6.0,-100.00,SSW,207,1.0,6.0,78,0.00,,,0.00,0.000000,,2013-03-26 11:43:00,
2013-03-26 03:52:00,-1.0,-6.0,-100.00,SSW,207,1.0,6.0,78,0.00,,,0.00,0.000000,,2013-03-26 11:52:00,
2013-03-26 04:02:00,-1.0,-6.0,-100.00,SSW,207,1.0,6.0,78,0.00,,,0.00,0.000000,,2013-03-26 12:02:00,
2013-03-26 04:12:00,-1.0,-6.0,-100.00,SSW,207,1.0,6.0,78,0.00,,,0.00,0.000000,,2013-03-26 12:12:00,
2013-03-26 04:43:00,-1.0,-6.0,-100.00,SW,217,2.0,6.0,77,0.00,,,0.00,0.000000,,2013-03-26 12:43:00,
2013-03-26 04:52:00,-1.0,-6.0,-100.00,SW,217,2.0,6.0,77,0.00,,,0.00,0.000000,,2013-03-26 12:52:00,
2013-03-26 05:03:00,-1.0,-6.0,-100.00,SW,217,2.0,6.0,77,0.00,,,0.00,0.000000,,2013-03-26 13:03:00,
2013-03-26 05:12:00,-1.0,-6.0,-100.00,SW,217,2.0,6.0,77,0.00,,,0.00,0.000000,,2013-03-26 13:12:00,
2013-03-26 05:42:00,-1.0,-5.0,-100.00,SW,235,2.0,7.0,82,0.00,,,0.00,0.000000,,2013-03-26 13:42:00,
2013-03-26 05:52:00,-1.0,-5.0,-100.00,SW,235,2.0,7.0,82,0.00,,,0.00,0.000000,,2013-03-26 13:52:00,
2013-03-26 06:02:00,-1.0,-5.0,-100.00,SW,235,2.0,7.0,82,0.00,,,0.00,0.000000,,2013-03-26 14:02:00,
2013-03-26 06:11:00,-1.0,-5.0,-100.00,SW,235,2.0,7.0,82,0.00,,,0.00,0.000000,,2013-03-26 14:11:00,
2013-03-26 06:42:00,-2.0,-8.0,-100.00,SW,229,1.0,6.0,76,0.00,,,0.00,0.000000,,2013-03-26 14:42:00,
2013-03-26 06:52:00,-2.0,-8.0,-100.00,SW,229,1.0,6.0,76,0.00,,,0.00,0.000000,,2013-03-26 14:52:00,
2013-03-26 07:02:00,-2.0,-8.0,-100.00,SW,229,1.0,6.0,76,0.00,,,0.00,0.000000,,2013-03-26 15:02:00,
2013-03-26 07:12:00,-2.0,-8.0,-100.00,SW,229,1.0,6.0,76,0.00,,,0.00,0.000000,,2013-03-26 15:12:00,
2013-03-26 07:43:00,-5.0,-10.0,-100.00,SSW,208,1.0,5.0,77,0.00,,,0.00,0.000000,,2013-03-26 15:43:00,
2013-03-26 07:52:00,-5.0,-10.0,-100.00,SSW,208,1.0,5.0,77,0.00,,,0.00,0.000000,,2013-03-26 15:52:00,
2013-03-26 08:02:00,-5.0,-10.0,-100.00,SSW,208,1.0,5.0,77,0.00,,,0.00,0.000000,,2013-03-26 16:02:00,
2013-03-26 08:12:00,-5.0,-10.0,-100.00,SSW,208,1.0,5.0,77,0.00,,,0.00,0.000000,,2013-03-26 16:12:00,
2013-03-26 08:42:00,-4.0,-8.0,-100.00,SW,226,1.0,6.0,82,0.00,,,0.00,11.000000,,2013-03-26 16:42:00,
2013-03-26 08:53:00,-4.0,-8.0,-100.00,SW,226,1.0,6.0,82,0.00,,,0.00,11.000000,,2013-03-26 16:53:00,
2013-03-26 09:02:00,-4.0,-8.0,-100.00,SW,226,1.0,6.0,82,0.00,,,0.00,11.000000,,2013-03-26 17:02:00,
2013-03-26 09:12:00,-4.0,-8.0,-100.00,SW,226,1.0,6.0,82,0.00,,,0.00,11.000000,,2013-03-26 17:12:00,
2013-03-26 09:42:00,-2.0,-7.0,-100.00,SSW,206,2.0,8.0,77,0.00,,,0.00,37.000000,,2013-03-26 17:42:00,
2013-03-26 09:53:00,-2.0,-7.0,-100.00,SSW,206,2.0,8.0,77,0.00,,,0.00,37.000000,,2013-03-26 17:53:00,
2013-03-26 10:02:00,-2.0,-7.0,-100.00,SSW,206,2.0,8.0,77,0.00,,,0.00,37.000000,,2013-03-26 18:02:00,
2013-03-26 10:12:00,-2.0,-7.0,-100.00,SSW,206,2.0,8.0,77,0.00,,,0.00,37.000000,,2013-03-26 18:12:00,
2013-03-26 10:42:00,2.0,-6.0,-100.00,SW,215,3.0,6.0,67,0.00,,,0.00,74.000000,,2013-03-26 18:42:00,
2013-03-26 10:52:00,2.0,-6.0,-100.00,SW,215,3.0,6.0,67,0.00,,,0.00,74.000000,,2013-03-26 18:52:00,
2013-03-26 11:02:00,2.0,-6.0,-100.00,SW,215,3.0,6.0,67,0.00,,,0.00,74.000000,,2013-03-26 19:02:00,
2013-03-26 11:12:00,2.0,-6.0,-100.00,SW,215,3.0,6.0,67,0.00,,,0.00,74.000000,,2013-03-26 19:12:00,
2013-03-26 11:42:00,4.0,-6.0,-100.00,SSW,203,3.0,8.0,61,0.00,,,-99.99,130.000000,,2013-03-26 19:42:00,
2013-03-26 11:53:00,4.0,-6.0,-100.00,SSW,203,3.0,8.0,61,0.00,,,-99.99,130.000000,,2013-03-26 19:53:00,
2013-03-26 12:02:00,4.0,-6.0,-100.00,SSW,203,3.0,8.0,61,0.00,,,-99.99,130.000000,,2013-03-26 20:02:00,
2013-03-26 12:12:00,4.0,-6.0,-100.00,SSW,203,3.0,8.0,61,0.00,,,-99.99,130.000000,,2013-03-26 20:12:00,
2013-03-26 12:43:00,7.0,-5.0,-100.00,SSW,207,3.0,8.0,58,0.00,,,0.00,165.000000,,2013-03-26 20:43:00,
2013-03-26 12:52:00,7.0,-5.0,-100.00,SSW,207,3.0,8.0,58,0.00,,,0.00,165.000000,,2013-03-26 20:52:00,
2013-03-26 13:02:00,7.0,-5.0,-100.00,SSW,207,3.0,8.0,58,0.00,,,0.00,165.000000,,2013-03-26 21:02:00,
2013-03-26 13:12:00,7.0,-5.0,-100.00,SSW,207,3.0,8.0,58,0.00,,,0.00,165.000000,,2013-03-26 21:12:00,
2013-03-26 13:43:00,8.0,-7.0,-100.00,SW,215,4.0,11.0,50,0.00,,,0.00,224.000000,,2013-03-26 21:43:00,
2013-03-26 13:52:00,8.0,-7.0,-100.00,SW,215,4.0,11.0,50,0.00,,,0.00,224.000000,,2013-03-26 21:52:00,
2013-03-26 14:01:00,8.0,-7.0,-100.00,SW,215,4.0,11.0,50,0.00,,,0.00,224.000000,,2013-03-26 22:01:00,
2013-03-26 14:11:00,8.0,-7.0,-100.00,SW,215,4.0,11.0,50,0.00,,,0.00,224.000000,,2013-03-26 22:11:00,
2013-03-26 14:42:00,7.0,-9.0,-100.00,SSW,212,4.0,10.0,47,0.00,,,0.00,227.000000,,2013-03-26 22:42:00,
2013-03-26 14:52:00,7.0,-9.0,-100.00,SSW,212,4.0,10.0,47,0.00,,,0.00,227.000000,,2013-03-26 22:52:00,
2013-03-26 15:01:00,7.0,-9.0,-100.00,SSW,212,4.0,10.0,47,0.00,,,0.00,227.000000,,2013-03-26 23:01:00,
2013-03-26 15:10:00,7.0,-9.0,-100.00,SSW,212,4.0,10.0,47,0.00,,,0.00,227.000000,,2013-03-26 23:10:00,
2013-03-26 15:43:00,9.0,-9.0,-100.00,SSW,203,3.0,12.0,43,0.00,,,0.00,286.000000,,2013-03-26 23:43:00,
2013-03-26 15:52:00,9.0,-9.0,-100.00,SSW,203,3.0,12.0,43,0.00,,,0.00,286.000000,,2013-03-26 23:52:00,
2013-03-26 16:02:00,9.0,-9.0,-100.00,SSW,203,3.0,12.0,43,0.00,,,0.00,286.000000,,2013-03-27 00:02:00,
2013-03-26 16:12:00,9.0,-9.0,-100.00,SSW,203,3.0,12.0,43,0.00,,,0.00,286.000000,,2013-03-27 00:12:00,
2013-03-26 16:42:00,9.0,-10.0,-100.00,SW,220,3.0,10.0,41,0.00,,,0.00,280.000000,,2013-03-27 00:42:00,
2013-03-26 16:52:00,9.0,-10.0,-100.00,SW,220,3.0,10.0,41,0.00,,,0.00,280.000000,,2013-03-27 00:52:00,
2013-03-26 17:02:00,9.0,-10.0,-100.00,SW,220,3.0,10.0,41,0.00,,,0.00,280.000000,,2013-03-27 01:02:00,
2013-03-26 17:11:00,9.0,-10.0,-100.00,SW,220,3.0,10.0,41,0.00,,,0.00,280.000000,,2013-03-27 01:11:00,
2013-03-26 17:42:00,9.0,-10.0,-100.00,SSW,210,3.0,10.0,40,0.00,,,0.00,355.000000,,2013-03-27 01:42:00,
2013-03-26 17:53:00,9.0,-10.0,-100.00,SSW,210,3.0,10.0,40,0.00,,,0.00,355.000000,,2013-03-27 01:53:00,
2013-03-26 18:02:00,9.0,-10.0,-100.00,SSW,210,3.0,10.0,40,0.00,,,0.00,355.000000,,2013-03-27 02:02:00,
2013-03-26 18:12:00,9.0,-10.0,-100.00,SSW,210,3.0,10.0,40,0.00,,,0.00,355.000000,,2013-03-27 02:12:00,
2013-03-26 18:42:00,5.0,-13.0,-100.00,SW,218,2.0,9.0,43,0.00,,,0.00,222.000000,,2013-03-27 02:42:00,
2013-03-26 18:53:00,5.0,-13.0,-100.00,SW,218,2.0,9.0,43,0.00,,,0.00,222.000000,,2013-03-27 02:53:00,
2013-03-26 19:02:00,5.0,-13.0,-100.00,SW,218,2.0,9.0,43,0.00,,,0.00,222.000000,,2013-03-27 03:02:00,
2013-03-26 19:11:00,5.0,-13.0,-100.00,SW,218,2.0,9.0,43,0.00,,,0.00,222.000000,,2013-03-27 03:11:00,
2013-03-26 19:42:00,3.0,-13.0,-100.00,SW,221,2.0,10.0,47,0.00,,,0.00,46.000000,,2013-03-27 03:42:00,
2013-03-26 19:53:00,3.0,-13.0,-100.00,SW,221,2.0,10.0,47,0.00,,,0.00,46.000000,,2013-03-27 03:53:00,
2013-03-26 20:02:00,3.0,-13.0,-100.00,SW,221,2.0,10.0,47,0.00,,,0.00,46.000000,,2013-03-27 04:02:00,
2013-03-26 20:12:00,3.0,-13.0,-100.00,SW,221,2.0,10.0,47,0.00,,,0.00,46.000000,,2013-03-27 04:12:00,
2013-03-26 20:43:00,-3.0,-16.0,-100.00,South,189,0.0,9.0,53,0.00,,,0.00,21.000000,,2013-03-27 04:43:00,
2013-03-26 20:52:00,-3.0,-16.0,-100.00,South,189,0.0,9.0,53,0.00,,,0.00,21.000000,,2013-03-27 04:52:00,
2013-03-26 21:02:00,-3.0,-16.0,-100.00,South,189,0.0,9.0,53,0.00,,,0.00,21.000000,,2013-03-27 05:02:00,
2013-03-26 21:12:00,-3.0,-16.0,-100.00,South,189,0.0,9.0,53,0.00,,,0.00,21.000000,,2013-03-27 05:12:00,
2013-03-26 21:42:00,-13.0,-19.0,-100.00,ESE,111,0.0,3.0,72,0.00,,,0.00,2.000000,,2013-03-27 05:42:00,
2013-03-26 21:52:00,-13.0,-19.0,-100.00,ESE,111,0.0,3.0,72,0.00,,,0.00,2.000000,,2013-03-27 05:52:00,
2013-03-26 22:42:00,-19.0,-24.0,-100.00,NNW,346,0.0,0.0,77,-99.99,,,0.00,0.000000,,2013-03-27 06:42:00,
2013-03-26 22:53:00,-19.0,-24.0,-100.00,NNW,346,0.0,0.0,77,-99.99,,,0.00,0.000000,,2013-03-27 06:53:00,
2013-03-26 23:43:00,-23.0,-28.0,-100.00,East,85,0.0,1.0,76,-99.99,,,0.00,0.000000,,2013-03-27 07:43:00,
2013-03-26 23:53:00,-23.0,-28.0,-100.00,East,85,0.0,1.0,76,-99.99,,,0.00,0.000000,,2013-03-27 07:53:00,